Overview Statistics Trail Chart Weather Telemetry Raw packets
 

This is the latest recevied weather packets stored in our database for station/object N0NB. If no packets are shown the sender has not sent any weather packets the latest 10 day(s).

<< 4 5 6 7 8 9 10 >>
Time Temp. Humidity Pressure Rain* Wind** Luminosity Snow
1788567917 32.22° C 65% 1010.5 hPa 0 mm - 26 W/m² -
1788567317 32.22° C 62% 1010.3 hPa 0 mm - 28 W/m² -
1788566717 33.33° C 60% 1010.4 hPa 0 mm - 73 W/m² -
1788566115 33.33° C 58% 1010.4 hPa 0 mm - 102 W/m² -
1788565517 33.89° C 57% 1010.6 hPa 0 mm - 135 W/m² -
1788564917 33.89° C 57% 1010.6 hPa 0 mm - 165 W/m² -
1788564317 34.44° C 56% 1010.6 hPa 0 mm - 199 W/m² -
1788563717 34.44° C 55% 1010.6 hPa 0 mm - 228 W/m² -
1788563117 34.44° C 55% 1010.6 hPa 0 mm - 259 W/m² -
1788562517 34.44° C 56% 1010.5 hPa 0 mm - 289 W/m² -
1788561917 35° C 55% 1010.6 hPa 0 mm - 318 W/m² -
1788561317 35° C 54% 1010.5 hPa 0 mm - 348 W/m² -
1788560717 35° C 54% 1010.5 hPa 0 mm - 376 W/m² -
1788560117 35° C 53% 1010.6 hPa 0 mm - 404 W/m² -
1788559517 35.56° C 54% 1010.5 hPa 0 mm - 434 W/m² -
1788558917 35.56° C 53% 1010.5 hPa 0 mm - 457 W/m² -
1788558317 35.56° C 53% 1010.7 hPa 0 mm - 483 W/m² -
1788557717 35.56° C 53% 1010.7 hPa 0 mm - 525 W/m² -
1788557117 35.56° C 53% 1010.7 hPa 0 mm - 533 W/m² -
1788556517 35° C 55% 1010.7 hPa 0 mm - 534 W/m² -
1788555917 35° C 55% 1010.9 hPa 0 mm - 445 W/m² -
1788555317 35.56° C 54% 1011 hPa 0 mm - 514 W/m² -
1788554717 35.56° C 55% 1011.1 hPa 0 mm - 623 W/m² -
1788554117 35.56° C 54% 1011.2 hPa 0 mm - 635 W/m² -
1788553517 35.56° C 58% 1011.4 hPa 0 mm - 647 W/m² -

* Rain latest hour (hover to see other rain measurements)
** Current wind speed in m/s (hover to see current wind gust speed)